423  
AXUS43 KGID 300502  
MISGRI  
 
GID CWA HOURLY WEATHER ROUNDUP  
NATIONAL WEATHER SERVICE HASTINGS NE  
1200 AM CDT MON MAR 30 2015  
 
NOTE: "FAIR" INDICATES FEW OR NO CLOUDS BELOW 12,000 FEET WITH NO  
SIGNIFICANT WEATHER AND/OR OBSTRUCTIONS TO VISIBILITY.  
   
..SOUTH CENTRAL NEBRASKA
 
 
 
CITY SKY/WX TMP DP RH WIND PRES REMARKS  
GRAND ISLAND CLEAR 38 22 52 S8 30.15F WCI 32  
HASTINGS CLEAR 39 19 44 CALM 30.15F  
KEARNEY CLEAR 45 16 31 SW6 30.15F  
ORD MOCLDY 31 15 52 SW5 30.11F WCI 26  
YORK PTCLDY 36 21 55 MISG 30.15F  
AURORA PTCLDY 36 20 51 SW6 30.15F WCI 32  
LEXINGTON PTCLDY 42 15 34 S3 30.15S  
HOLDREGE PTCLDY 40 11 31 S5 30.16S  
HEBRON PTCLDY 36 26 65 CALM 30.17S  
   
..NEBRASKA PANHANDLE
 
 
 
CITY SKY/WX TMP DP RH WIND PRES REMARKS  
CHADRON PTCLDY 36 25 64 SW5 30.06F WCI 32  
ALLIANCE PTCLDY 43 24 47 S9 30.09S  
SCOTTSBLUFF PTCLDY 39 24 55 E8 30.10F WCI 33  
SIDNEY CLEAR 40 24 53 S10 30.14F WCI 33  
   
..WESTERN AND NORTH CENTRAL NEBRASKA
 
 
 
CITY SKY/WX TMP DP RH WIND PRES REMARKS  
VALENTINE MOCLDY 40 23 50 SW12 30.07F WCI 33  
AINSWORTH MOCLDY 40 24 52 S6 30.08F  
ONEILL CLOUDY 42 26 53 SW9 30.09F  
BROKEN BOW PTCLDY 29 14 53 CALM 30.13S  
NORTH PLATTE CLEAR 35 27 72 CALM 30.14F  
MCCOOK CLEAR 45 16 31 S6 30.17S  
   
..EASTERN NEBRASKA
 
 
 
CITY SKY/WX TMP DP RH WIND PRES REMARKS  
NORFOLK CLEAR 37 25 61 S8 30.10F WCI 31  
SO SIOUX CITY CLEAR 34 21 59 CALM 30.09S  
TEKAMAH CLEAR 37 19 48 W7G30 30.11F WCI 32  
COLUMBUS CLEAR 32 19 59 NW5 30.14F WCI 27  
ALBION PTCLDY 34 22 60 CALM 30.12F  
OMAHA EPPLEY CLEAR 38 28 67 SE3 30.12F  
OFFUTT AFB CLEAR 40 23 50 W2 30.12S  
MILLARD CLEAR 40 28 62 CALM 30.13F  
LINCOLN CLEAR 37 24 59 CALM 30.15F  
NEBRASKA CITY CLEAR 42 22 44 W10 30.14S  
BEATRICE CLEAR 33 24 68 CALM 30.15F  
FALLS CITY CLEAR 43 27 53 W6 30.15S  
   
..NORTHERN KANSAS
 
 
 
CITY SKY/WX TMP DP RH WIND PRES REMARKS  
GOODLAND CLEAR 43 21 41 S13 30.20F  
HILL CITY CLEAR 33 15 47 W3 30.19S  
NORTON CLEAR 39 9 28 S3 30.17S  
PHILLIPSBURG CLEAR 41 16 36 CALM 30.18F  
SMITH CENTER CLEAR 39 19 45 E7 30.18F WCI 34  
BELOIT CLEAR 34 19 55 CALM 30.18S  
HAYS CLEAR 37 14 38 S3 30.20S  
RUSSELL CLEAR 37 16 42 S7 30.19R WCI 32  
CONCORDIA PTCLDY 44 23 43 S5 30.18S  
SALINA CLEAR 42 22 44 SW6 30.20R  
TOPEKA CLEAR 39 34 82 CALM 30.18R  
 
CLICK HERE TO GO TO PREVIOUS BULLETINS.

The Nexlab NE Page
The Nexlab KS Page Main Text Page